Fort Belvoir, VA

10:47 AM EDT on April 28, 2017 (GMT -0400)
Davison Army Air Field

Weather History for KDAA - March, 2013

Change the Weather History Date:

Monday, March 25, 2013

  Actual Average Record
Temperature  
Mean Temperature 36 °F -  
Max Temperature 40 °F 58 °F 79 °F (2017)
Min Temperature 32 °F 37 °F 23 °F (2014)
Degree Days  
Heating Degree Days 30    
Moisture  
Dew Point 33 °F    
Average Humidity 93    
Maximum Humidity 100    
Minimum Humidity 80    
Precipitation  
Precipitation 0.28 in - - ()
Snow  
Snow 0.00 in - - ()
Snow Depth 2.00 in    
Sea Level Pressure  
Sea Level Pressure 29.61 in    
Wind  
Wind Speed 3 mph (NW)    
Max Wind Speed 9 mph    
Max Gust Speed -    
Visibility 6 miles    
Events Rain , Snow    
Averages and records for this station are not official NWS values.
T = Trace of Precipitation, MM = Missing Value Source: NWS Daily Summary

Daily Weather History Graph

Daily Weather History Graph

Search for Another Location

Airport or City:

Trip Planner

Search our weather history database for the weather conditions in past years. The results will help you decide how hot, cold, wet, or windy it might be!

Date:

Astronomy

Mar. 25, 2013 Rise Set
Actual Time 7:04 AM EDT 7:25 PM EDT
Civil Twilight 6:37 AM EDT 7:52 PM EDT
Nautical Twilight 6:06 AM EDT 8:23 PM EDT
Astronomical Twilight 5:34 AM EDT 8:55 PM EDT
Moon 5:55 PM EDT (3/25) 5:45 AM EDT (3/25)
Length of Visible Light 13h 14m
Length of Day
12h 21m
Waxing Gibbous, 96% of the Moon is Illuminated
Mar 25
Waxing Gibbous
Mar 27
Full
Apr 3
Last Quarter
Apr 10
New
Apr 18
First Quarter

Hourly Weather History & Observations

Time (EDT) Temp. Windchill Dew Point Humidity Pressure Visibility Wind Dir Wind Speed Gust Speed Precip Events Conditions
12:02 AM 33.8 °F 30.8 °F 32.0 °F 93% 29.68 in 7.0 mi Variable 3.5 mph - N/A   Overcast
12:03 AM 33.8 °F 30.8 °F 32.0 °F 93% 29.68 in 7.0 mi Variable 3.5 mph - N/A   Overcast
12:17 AM 33.8 °F - 32.0 °F 93% 29.67 in 8.0 mi Calm Calm - N/A   Overcast
12:55 AM 34.3 °F - 32.7 °F 94% 29.65 in 10.0 mi Calm Calm - N/A   Overcast
1:03 AM 33.8 °F - 32.0 °F 93% 29.65 in 10.0 mi Calm Calm - N/A   Overcast
1:04 AM 33.8 °F 30.8 °F 32.0 °F 93% 29.64 in 10.0 mi ESE 3.5 mph - N/A   Overcast
1:11 AM 33.8 °F 30.8 °F 32.0 °F 93% 29.64 in 10.0 mi ESE 3.5 mph - N/A   Overcast
1:54 AM 33.8 °F 29.6 °F 32.0 °F 93% 29.62 in 9.0 mi ENE 4.6 mph - N/A   Overcast
1:55 AM 34.5 °F 31.6 °F 32.4 °F 92% 29.62 in 9.0 mi Variable 3.5 mph - 0.00 in   Overcast
2:11 AM 33.8 °F 30.8 °F 32.0 °F 93% 29.61 in 6.0 mi Variable 3.5 mph - N/A Rain Light Rain
2:38 AM 33.8 °F - 32.0 °F 93% 29.60 in 6.0 mi Calm Calm - N/A Rain Light Rain
2:40 AM 33.8 °F - 32.0 °F 93% 29.60 in 6.0 mi Calm Calm - N/A Rain Light Rain
2:42 AM 33.8 °F 30.8 °F 32.0 °F 93% 29.60 in 6.0 mi Variable 3.5 mph - N/A Rain Light Rain
2:55 AM 34.0 °F - 32.2 °F 93% 29.59 in 5.0 mi Calm Calm - 0.00 in Snow Light Snow
3:19 AM 33.8 °F - 32.0 °F 93% 29.58 in 3.0 mi Calm Calm - N/A Snow Light Snow
3:23 AM 33.8 °F - 32.0 °F 93% 29.59 in 2.5 mi Calm Calm - N/A Snow Light Snow
3:28 AM 33.8 °F 30.8 °F 32.0 °F 93% 29.59 in 2.5 mi WNW 3.5 mph - N/A Snow Light Snow
3:31 AM 33.8 °F 29.6 °F 32.0 °F 93% 29.59 in 3.0 mi WNW 4.6 mph - N/A Snow Light Snow
3:43 AM 33.8 °F 27.7 °F 32.0 °F 93% 29.61 in 4.0 mi West 6.9 mph - N/A Snow Light Snow
3:51 AM 33.8 °F 27.0 °F 32.0 °F 93% 29.61 in 4.0 mi WNW 8.1 mph - N/A Snow Light Snow
3:55 AM 32.9 °F 26.7 °F 31.8 °F 96% 29.62 in 4.0 mi WNW 6.9 mph - 0.03 in Snow Light Snow
4:05 AM 33.8 °F 28.6 °F 32.0 °F 93% 29.62 in 2.5 mi WNW 5.8 mph - N/A Snow Light Snow
4:07 AM 32.0 °F 26.4 °F 32.0 °F 100% 29.62 in 2.5 mi WNW 5.8 mph - N/A Snow Light Snow
4:09 AM 32.0 °F 26.4 °F 32.0 °F 100% 29.62 in 2.0 mi WNW 5.8 mph - N/A Snow Light Snow
4:12 AM 32.0 °F 26.4 °F 32.0 °F 100% 29.62 in 2.0 mi WNW 5.8 mph - N/A Snow Light Snow
4:21 AM 32.0 °F 27.5 °F 32.0 °F 100% 29.62 in 2.0 mi WNW 4.6 mph - N/A Snow Light Snow
4:23 AM 32.0 °F 27.5 °F 32.0 °F 100% 29.62 in 1.8 mi WNW 4.6 mph - N/A Snow Light Snow
4:29 AM 32.0 °F 28.7 °F 32.0 °F 100% 29.61 in 1.5 mi NW 3.5 mph - N/A Snow Light Snow
4:34 AM 32.0 °F 28.7 °F 32.0 °F 100% 29.61 in 1.8 mi NW 3.5 mph - N/A Snow Light Snow
4:41 AM 32.0 °F - 32.0 °F 100% 29.60 in 1.5 mi Calm Calm - N/A Snow Light Snow
4:46 AM 32.0 °F - 32.0 °F 100% 29.60 in 1.2 mi Calm Calm - N/A Snow Light Snow
4:55 AM 32.7 °F - 31.6 °F 96% 29.60 in 1.2 mi Calm Calm - 0.08 in Snow Light Snow
5:03 AM 32.0 °F - 32.0 °F 100% 29.60 in 1.5 mi Calm Calm - N/A Snow Light Snow
5:06 AM 32.0 °F - 32.0 °F 100% 29.59 in 1.8 mi Calm Calm - N/A Snow Light Snow
5:07 AM 32.0 °F - 32.0 °F 100% 29.59 in 2.0 mi Calm Calm - N/A Snow Light Snow
5:12 AM 32.0 °F - 32.0 °F 100% 29.59 in 1.8 mi Calm Calm - N/A Snow Light Snow
5:15 AM 32.0 °F - 32.0 °F 100% 29.59 in 1.5 mi Calm Calm - N/A Snow Light Snow
5:18 AM 32.0 °F - 32.0 °F 100% 29.59 in 1.2 mi Calm Calm - N/A Snow Light Snow
5:20 AM 32.0 °F - 32.0 °F 100% 29.59 in 1.2 mi Calm Calm - N/A Snow Light Snow
5:23 AM 32.0 °F - 32.0 °F 100% 29.59 in 1.0 mi Calm Calm - N/A Snow Light Snow
5:27 AM 32.0 °F - 32.0 °F 100% 29.59 in 1.2 mi Calm Calm - N/A Snow Light Snow
5:31 AM 32.0 °F - 32.0 °F 100% 29.59 in 1.5 mi Calm Calm - N/A Snow Light Snow
5:35 AM 32.0 °F - 32.0 °F 100% 29.58 in 1.2 mi Calm Calm - N/A Snow Light Snow
5:36 AM 32.0 °F - 32.0 °F 100% 29.58 in 1.2 mi Calm Calm - N/A Snow Light Snow
5:42 AM 32.0 °F 28.7 °F 32.0 °F 100% 29.58 in 1.5 mi NW 3.5 mph - N/A Snow Light Snow
5:45 AM 32.0 °F - 32.0 °F 100% 29.58 in 1.8 mi Calm Calm - N/A Snow Light Snow
5:50 AM 32.0 °F - 32.0 °F 100% 29.58 in 1.8 mi Calm Calm - N/A Snow Light Snow
5:52 AM 32.0 °F - 32.0 °F 100% 29.58 in 1.8 mi Calm Calm - N/A Snow Light Snow
5:54 AM 32.0 °F - 32.0 °F 100% 29.58 in 1.5 mi Calm Calm - N/A Snow Light Snow
5:55 AM 32.9 °F - 32.0 °F 96% 29.58 in 1.5 mi Calm Calm - 0.08 in Snow Light Snow
6:02 AM 32.0 °F 28.7 °F 32.0 °F 100% 29.58 in 1.2 mi NW 3.5 mph - N/A Snow Light Snow
6:06 AM 32.0 °F 28.7 °F 32.0 °F 100% 29.57 in 1.5 mi NW 3.5 mph - N/A Snow Light Snow
6:11 AM 32.0 °F - 32.0 °F 100% 29.57 in 1.8 mi Calm Calm - N/A Snow Light Snow
6:12 AM 32.0 °F - 32.0 °F 100% 29.57 in 2.0 mi Calm Calm - N/A Snow Light Snow
6:14 AM 32.0 °F - 32.0 °F 100% 29.57 in 2.5 mi Calm Calm - N/A Snow Light Snow
6:17 AM 33.8 °F - 32.0 °F 93% 29.57 in 3.0 mi Calm Calm - N/A Snow Light Snow
6:32 AM 33.8 °F 30.8 °F 32.0 °F 93% 29.57 in 6.0 mi NNW 3.5 mph - N/A Snow Light Snow
6:36 AM 33.8 °F - 32.0 °F 93% 29.57 in 6.0 mi Calm Calm - N/A Snow Light Snow
6:41 AM 33.8 °F - 32.0 °F 93% 29.57 in 5.0 mi Calm Calm - N/A Snow Light Snow
6:55 AM 33.1 °F - 32.0 °F 96% 29.57 in 5.0 mi Calm Calm - 0.02 in Snow Light Snow
7:09 AM 33.8 °F - 32.0 °F 93% 29.56 in 4.0 mi Calm Calm - N/A Snow Light Snow
7:12 AM 33.8 °F - 32.0 °F 93% 29.57 in 4.0 mi Calm Calm - N/A Snow Light Snow
7:16 AM 33.8 °F - 32.0 °F 93% 29.57 in 5.0 mi Calm Calm - N/A Snow Light Snow
7:20 AM 33.8 °F - 32.0 °F 93% 29.57 in 5.0 mi Calm Calm - N/A Snow Light Snow
7:21 AM 33.8 °F - 32.0 °F 93% 29.57 in 5.0 mi Calm Calm - N/A Snow Light Snow
7:26 AM 33.8 °F 30.8 °F 32.0 °F 93% 29.57 in 3.0 mi WNW 3.5 mph - N/A Snow Light Snow
7:27 AM 33.8 °F 30.8 °F 32.0 °F 93% 29.57 in 3.0 mi NW 3.5 mph - N/A Snow Light Snow
7:28 AM 33.8 °F 30.8 °F 32.0 °F 93% 29.57 in 2.5 mi WNW 3.5 mph - N/A Snow Light Snow
7:30 AM 33.8 °F 30.8 °F 32.0 °F 93% 29.57 in 2.0 mi WNW 3.5 mph - N/A Snow Light Snow
7:42 AM 33.8 °F 30.8 °F 32.0 °F 93% 29.57 in 2.5 mi NW 3.5 mph - N/A Snow Light Snow
7:43 AM 33.8 °F 30.8 °F 32.0 °F 93% 29.57 in 2.0 mi NW 3.5 mph - N/A Snow Light Snow
7:48 AM 33.8 °F 30.8 °F 32.0 °F 93% 29.57 in 2.0 mi NW 3.5 mph - N/A Snow Light Snow
7:50 AM 33.8 °F - 32.0 °F 93% 29.57 in 1.8 mi Calm Calm - N/A Snow Light Snow
7:52 AM 33.8 °F - 32.0 °F 93% 29.57 in 1.8 mi Calm Calm - N/A Snow Light Snow
7:55 AM 33.3 °F - 32.0 °F 95% 29.58 in 1.8 mi Calm Calm - 0.02 in Snow Light Snow
8:06 AM 33.8 °F - 32.0 °F 93% 29.56 in 1.5 mi Calm Calm - N/A Snow Light Snow
8:12 AM 32.0 °F - 32.0 °F 100% 29.56 in 1.5 mi Calm Calm - N/A Snow Light Snow
8:13 AM 32.0 °F - 32.0 °F 100% 29.56 in 1.2 mi Calm Calm - N/A Snow Light Snow
8:18 AM 33.8 °F - 32.0 °F 93% 29.56 in 1.5 mi Calm Calm - N/A Snow Light Snow
8:22 AM 33.8 °F - 32.0 °F 93% 29.56 in 1.8 mi Calm Calm - N/A Snow Light Snow
8:24 AM 33.8 °F - 32.0 °F 93% 29.56 in 2.0 mi Calm Calm - N/A Snow Light Snow
8:26 AM 33.8 °F - 32.0 °F 93% 29.56 in 2.0 mi Calm Calm - N/A Snow Light Snow
8:31 AM 33.8 °F - 32.0 °F 93% 29.56 in 2.5 mi Calm Calm - N/A Snow Light Snow
8:38 AM 33.8 °F - 32.0 °F 93% 29.56 in 3.0 mi Calm Calm - N/A Snow Light Snow
8:39 AM 33.8 °F - 32.0 °F 93% 29.56 in 3.0 mi Calm Calm - N/A Snow Light Snow
8:40 AM 33.8 °F - 32.0 °F 93% 29.56 in 3.0 mi Calm Calm - N/A Snow Light Snow
8:45 AM 33.8 °F - 32.0 °F 93% 29.55 in 2.5 mi Calm Calm - N/A Snow Light Snow
8:50 AM 33.8 °F - 32.0 °F 93% 29.55 in 2.0 mi Calm Calm - N/A Snow Light Snow
8:54 AM 33.8 °F - 32.0 °F 93% 29.55 in 2.0 mi Calm Calm - N/A Snow Light Snow
8:55 AM 33.6 °F - 32.4 °F 95% 29.55 in 2.0 mi Calm Calm - 0.01 in Snow Light Snow
8:57 AM 33.8 °F - 32.0 °F 93% 29.55 in 2.5 mi Calm Calm - N/A Snow Light Snow
9:02 AM 33.8 °F - 32.0 °F 93% 29.55 in 3.0 mi Calm Calm - N/A Snow Light Snow
9:24 AM 33.8 °F - 32.0 °F 93% 29.54 in 5.0 mi Calm Calm - N/A Snow Light Snow
9:55 AM 35.4 °F - 32.9 °F 91% 29.55 in 10.0 mi Calm Calm - 0.00 in Rain Light Rain
10:33 AM 35.6 °F - 33.8 °F 93% 29.55 in 6.0 mi Calm Calm - N/A Snow Light Snow
10:37 AM 35.6 °F - 33.8 °F 93% 29.55 in 6.0 mi Calm Calm - N/A Snow Light Snow
10:38 AM 35.6 °F 32.8 °F 33.8 °F 93% 29.55 in 5.0 mi Variable 3.5 mph - N/A Snow Light Snow
10:46 AM 35.6 °F 32.8 °F 33.8 °F 93% 29.55 in 5.0 mi NW 3.5 mph - N/A Snow Light Snow
10:55 AM 34.9 °F 32.0 °F 32.9 °F 92% 29.56 in 4.0 mi WNW 3.5 mph - 0.00 in Snow Light Snow
11:32 AM 35.6 °F 32.8 °F 33.8 °F 93% 29.55 in 5.0 mi WNW 3.5 mph - N/A Snow Light Snow
11:45 AM 35.6 °F 31.7 °F 33.8 °F 93% 29.56 in 8.0 mi NW 4.6 mph - N/A Rain Light Rain
11:55 AM 36.0 °F 30.3 °F 33.6 °F 91% 29.56 in 7.0 mi NW 6.9 mph - 0.02 in Snow Light Snow
12:51 PM 37.4 °F 32.8 °F 33.8 °F 87% 29.55 in 10.0 mi NW 5.8 mph - N/A Rain Light Rain
12:55 PM 36.7 °F 31.2 °F 34.0 °F 90% 29.55 in 10.0 mi Variable 6.9 mph - 0.02 in Rain Light Rain
1:22 PM 37.4 °F 32.1 °F 33.8 °F 87% 29.55 in 10.0 mi NW 6.9 mph - N/A Rain Light Rain
1:55 PM 37.8 °F 31.8 °F 34.5 °F 88% 29.55 in 10.0 mi NW 8.1 mph - 0.00 in Rain Light Rain
2:18 PM 37.4 °F 32.8 °F 33.8 °F 87% 29.55 in 10.0 mi NW 5.8 mph - N/A Rain Light Rain
2:55 PM 38.5 °F 33.4 °F 35.2 °F 88% 29.55 in 10.0 mi NW 6.9 mph - 0.00 in Rain Light Rain
3:03 PM 39.2 °F 33.6 °F 33.8 °F 81% 29.55 in 10.0 mi NW 8.1 mph - N/A Rain Light Rain
3:06 PM 37.4 °F 31.4 °F 33.8 °F 87% 29.55 in 10.0 mi NW 8.1 mph - N/A Rain Light Rain
3:07 PM 37.4 °F 31.4 °F 33.8 °F 87% 29.55 in 10.0 mi NW 8.1 mph - N/A Rain Light Rain
3:09 PM 37.4 °F 30.8 °F 33.8 °F 87% 29.55 in 10.0 mi NW 9.2 mph - N/A Rain Light Rain
3:55 PM 38.8 °F 33.8 °F 35.2 °F 87% 29.55 in 10.0 mi WNW 6.9 mph - 0.00 in Rain Light Rain
4:00 PM 39.2 °F 35.0 °F 35.6 °F 87% 29.55 in 10.0 mi NW 5.8 mph - N/A   Overcast
4:05 PM 39.2 °F 34.2 °F 35.6 °F 87% 29.55 in 10.0 mi NW 6.9 mph - N/A Rain Light Rain
4:20 PM 39.2 °F 33.6 °F 33.8 °F 81% 29.56 in 10.0 mi NW 8.1 mph - N/A Rain Light Rain
4:22 PM 39.2 °F 34.2 °F 33.8 °F 81% 29.56 in 10.0 mi Variable 6.9 mph - N/A Rain Light Rain
4:25 PM 39.2 °F 35.0 °F 33.8 °F 81% 29.54 in 10.0 mi NNW 5.8 mph - N/A Rain Light Rain
4:53 PM 39.2 °F 34.2 °F 33.8 °F 81% 29.57 in 10.0 mi WNW 6.9 mph - N/A Rain Light Rain
4:55 PM 39.9 °F 35.1 °F 34.2 °F 80% 29.57 in 10.0 mi WNW 6.9 mph - 0.00 in Rain Light Rain
5:04 PM 39.2 °F 35.0 °F 33.8 °F 81% 29.57 in 10.0 mi NW 5.8 mph - N/A Rain Light Rain
5:10 PM 39.2 °F 33.6 °F 33.8 °F 81% 29.58 in 10.0 mi WNW 8.1 mph - N/A Rain Light Rain
5:49 PM 39.2 °F 35.0 °F 35.6 °F 87% 29.59 in 10.0 mi West 5.8 mph - N/A Rain Light Rain
5:54 PM 39.2 °F 35.9 °F 35.6 °F 87% 29.59 in 10.0 mi WNW 4.6 mph - N/A Rain Light Rain
5:55 PM 39.4 °F 35.2 °F 35.6 °F 86% 29.59 in 10.0 mi WNW 5.8 mph - 0.00 in Rain Light Rain
6:21 PM 39.2 °F 34.2 °F 35.6 °F 87% 29.61 in 10.0 mi West 6.9 mph - N/A Rain Light Rain
6:55 PM 38.7 °F 34.3 °F 35.6 °F 89% 29.63 in 10.0 mi WNW 5.8 mph - 0.00 in Rain Light Rain
6:58 PM 39.2 °F 34.2 °F 35.6 °F 87% 29.63 in 10.0 mi WNW 6.9 mph - N/A   Overcast
7:11 PM 39.2 °F 33.6 °F 35.6 °F 87% 29.64 in 10.0 mi WNW 8.1 mph - N/A   Overcast
7:16 PM 39.2 °F 33.6 °F 35.6 °F 87% 29.64 in 10.0 mi WNW 8.1 mph - N/A Rain Light Rain
7:23 PM 39.2 °F 34.2 °F 35.6 °F 87% 29.64 in 10.0 mi WNW 6.9 mph - N/A Rain Light Rain
7:29 PM 37.4 °F 32.1 °F 35.6 °F 93% 29.65 in 10.0 mi WNW 6.9 mph - N/A Rain Light Rain
7:36 PM 37.4 °F 32.1 °F 33.8 °F 87% 29.65 in 10.0 mi WNW 6.9 mph - N/A Rain Light Rain
7:41 PM 37.4 °F 31.4 °F 33.8 °F 87% 29.65 in 10.0 mi WNW 8.1 mph - N/A Rain Light Rain
7:54 PM 37.4 °F 32.8 °F 35.6 °F 93% 29.66 in 10.0 mi NW 5.8 mph - N/A Rain Light Rain
7:55 PM 38.1 °F 33.7 °F 35.1 °F 89% 29.66 in 10.0 mi NNW 5.8 mph - 0.00 in Rain Light Rain
8:02 PM 37.4 °F 34.9 °F 35.6 °F 93% 29.67 in 10.0 mi North 3.5 mph - N/A Rain Light Rain
8:27 PM 37.4 °F - 35.6 °F 93% 29.68 in 9.0 mi Calm Calm - N/A   Light Drizzle
8:55 PM 36.9 °F - 35.1 °F 93% 29.69 in 10.0 mi Calm Calm - 0.00 in Rain Light Rain
9:11 PM 35.6 °F - 35.6 °F 100% 29.70 in 5.0 mi Calm Calm - N/A Rain Light Rain
9:23 PM 35.6 °F - 35.6 °F 100% 29.70 in 5.0 mi Calm Calm - N/A   Light Drizzle
9:40 PM 37.4 °F - 35.6 °F 93% 29.70 in 6.0 mi Calm Calm - N/A   Light Drizzle
9:41 PM 37.4 °F - 35.6 °F 93% 29.70 in 6.0 mi Calm Calm - N/A   Light Drizzle
9:52 PM 37.4 °F - 35.6 °F 93% 29.71 in 6.0 mi Calm Calm - N/A   Light Drizzle
9:55 PM 36.7 °F - 35.6 °F 96% 29.71 in 8.0 mi Calm Calm - 0.00 in Rain Light Rain
9:58 PM 37.4 °F - 35.6 °F 93% 29.71 in 8.0 mi Calm Calm - N/A Rain Light Rain
10:08 PM 37.4 °F - 35.6 °F 93% 29.71 in 7.0 mi Calm Calm - N/A Rain Light Rain
10:30 PM 37.4 °F 34.9 °F 35.6 °F 93% 29.72 in 9.0 mi Variable 3.5 mph - N/A Rain Light Rain
10:45 PM 37.4 °F 34.9 °F 35.6 °F 93% 29.72 in 10.0 mi NW 3.5 mph - N/A Rain Light Rain
10:55 PM 36.9 °F - 34.5 °F 91% 29.72 in 10.0 mi Calm Calm - 0.00 in Rain Light Rain
11:23 PM 37.4 °F 33.8 °F 33.8 °F 87% 29.72 in 10.0 mi West 4.6 mph - N/A   Mostly Cloudy
11:28 PM 35.6 °F 30.7 °F 33.8 °F 93% 29.73 in 10.0 mi West 5.8 mph - N/A   Mostly Cloudy
11:31 PM 35.6 °F 31.7 °F 33.8 °F 93% 29.73 in 10.0 mi WNW 4.6 mph - N/A   Mostly Cloudy
11:33 PM 37.4 °F 32.8 °F 33.8 °F 87% 29.73 in 10.0 mi WNW 5.8 mph - N/A   Mostly Cloudy
11:37 PM 37.4 °F 33.8 °F 33.8 °F 87% 29.73 in 10.0 mi WNW 4.6 mph - N/A   Mostly Cloudy
11:39 PM 37.4 °F 33.8 °F 33.8 °F 87% 29.73 in 10.0 mi WNW 4.6 mph - N/A   Mostly Cloudy
11:40 PM 37.4 °F 33.8 °F 33.8 °F 87% 29.73 in 10.0 mi WNW 4.6 mph - N/A   Mostly Cloudy
11:44 PM 37.4 °F 33.8 °F 33.8 °F 87% 29.73 in 10.0 mi WNW 4.6 mph - N/A   Mostly Cloudy
11:46 PM 37.4 °F 32.8 °F 33.8 °F 87% 29.73 in 10.0 mi WNW 5.8 mph - N/A   Mostly Cloudy
11:54 PM 37.4 °F 33.8 °F 33.8 °F 87% 29.73 in 10.0 mi WNW 4.6 mph - N/A   Mostly Cloudy
11:55 PM 36.7 °F 32.9 °F 34.5 °F 92% 29.73 in 10.0 mi WNW 4.6 mph - 0.00 in Rain Light Rain
11:57 PM 37.4 °F 33.8 °F 33.8 °F 87% 29.73 in 9.0 mi WNW 4.6 mph - N/A Rain Light Rain